Weather Roundup
Issued by NWS

Home | Current Version | Previous Version | Text Only | Print | Product List | Glossary On
Versions: 1 2 3 4 5 6 7 8 9 10 11 12 13 14 15 16 17 18 19 20 21 22 23 24 25 26 27 28 29 30 31 32 33 34 35 36 37 38 39 40 41 42 43 44 45 46 47 48 49 50
332
NZUS93 KARX 260810
HRRWXR

CURRENT HOURLY OBSERVATIONS ACROSS
MUCH OF THE UPPER MISSISSIPPI VALLEY
NATIONAL WEATHER SERVICE LA CROSSE WI
200 AM CST SUN FEB 26 2017


...SOUTHEAST MINNESOTA...


CITY           SKY/WX    TMP DP  RH WIND       PRES   REMARKS
ROCHESTER      CLOUDY    23  18  81 S15       29.80F WCI  10
ROCHESTER/MAYO CLOUDY    25  18  72 S12       29.81F WCI  15
WINONA         CLOUDY    28  19  69 S3        29.86F
AUSTIN         CLOUDY    25  18  74 S15       29.81F WCI  12
ALBERT LEA     PTCLDY    27  19  74 S10       29.79F WCI  17
DODGE CENTER   NOT AVBL
PRESTON        CLOUDY    24  17  75 S15       29.83F WCI  11
OWATONNA       CLEAR     21  16  79 S12       29.79F WCI   9
FARIBAULT      PTCLDY    23  18  80 S7        29.79F WCI  15
$$

...ELSEWHERE IN MINNESOTA...


CITY           SKY/WX    TMP DP  RH WIND       PRES   REMARKS
MINNEAPOLIS    MOCLDY    25  15  66 SW10      29.77F WCI  15
INTNL FALLS    CLOUDY    13   7  77 W5        29.66S WCI   5
DULUTH         LGT SNOW  26  23  88 SW9       29.64F VSB 1   WCI  17
RED WING       CLOUDY    27  16  63 SW7       29.80F WCI  19
REDWOOD FALLS  CLOUDY    27  19  72 SW9       29.74S WCI  18
MANKATO          N/A     20  16  84 S9        29.78F WCI   9
WORTHINGTON    CLEAR     20  16  84 SW13      29.75F WCI   7
FAIRMONT       PTCLDY    19  15  84 S12       29.79F WCI   7
$$

...SOUTHWEST WISCONSIN...


CITY           SKY/WX    TMP DP  RH WIND       PRES   REMARKS
LA CROSSE      CLOUDY    27  18  69 S10       29.88F WCI  17
PRAIRIE DU CHI CLOUDY    27  17  65 CALM      29.93F
BOSCOBEL       CLOUDY    25  17  72 S3        29.94F
LONE ROCK      CLOUDY    23  16  74 CALM      29.95F
PLATTEVILLE    MOCLDY    24  20  83 S7        29.94F WCI  16
FORT MC COY    CLOUDY    23  16  73 CALM      29.90F
CAMP DOUGLAS   CLOUDY    21  14  74 SE5       29.89F WCI  14
MAUSTON-NEW LI CLOUDY    23  15  71 S5        29.90F WCI  16
VIROQUA        CLOUDY    23  17  78 S8        29.87F WCI  13
WIS DELLS      CLOUDY    21  15  76 S7        29.92F WCI  13
$$

...ELSEWHERE IN WISCONSIN...


CITY           SKY/WX    TMP DP  RH WIND       PRES   REMARKS
MILWAUKEE      PTCLDY    22  13  68 SW9       29.99S WCI  12
MADISON        CLOUDY    22  15  75 SW5       29.96F WCI  16
GREEN BAY      MOCLDY    19  13  77 S5        29.92S WCI  12
EAU CLAIRE     CLOUDY    21  15  78 S7        29.81F WCI  12
BLACK RVR FLS  CLOUDY    22  15  76 CALM      29.87F
MEDFORD        CLOUDY    18  11  73 SW12      29.80F WCI   6
WAUSAU         LGT SNOW  18  13  80 S9        29.84S WCI   7
WIS RAPIDS     CLOUDY    21  13  71 SW10      29.90F WCI  10
MARSHFIELD     CLOUDY    20  12  71 SW10      29.84F WCI   9
RICE LAKE      MOCLDY    23  15  71 S7        29.78F WCI  14
$$

...NORTHEAST IOWA...


CITY           SKY/WX    TMP DP  RH WIND       PRES   REMARKS
WATERLOO       CLOUDY    28  19  69 S14       29.88F WCI  17
DUBUQUE        CLOUDY    24  18  77 S12       29.94F WCI  13
DECORAH        CLOUDY    27  19  74 S10G18    29.85F WCI  17
MASON CITY     CLEAR     21  16  81 S9        29.83F WCI  11
CHARLES CITY   CLOUDY    27  21  80 S14       29.85F WCI  15
OELWEIN        CLOUDY    27  21  80 S17       29.89F WCI  14
$$

...ELSEWHERE IN IOWA...


CITY           SKY/WX    TMP DP  RH WIND       PRES   REMARKS
DES MOINES     CLOUDY    32  17  54 SW12      29.89F WCI  23
IOWA CITY      CLOUDY    28  19  69 SE8       29.99F WCI  20
FORT DODGE     CLOUDY    25  16  68 S12       29.83F WCI  14
MARSHALLTOWN   CLOUDY    29  20  69 S15       29.87F WCI  18
CEDAR RAPIDS   CLOUDY    27  19  72 S10       29.94F WCI  17
$$

...NORTHERN ILLINOIS...


CITY           SKY/WX    TMP DP  RH WIND       PRES   REMARKS
CHICAGO-OHARE  PTCLDY    24  16  71 SW5       30.04S WCI  18
CHICAGO-MIDWAY MOCLDY    24  14  65 SW7       30.06R WCI  16
MOLINE         MOCLDY    26  17  68 CALM      30.02F
ROCKFORD       CLOUDY    25  19  78 S6        30.03F WCI  18
PEORIA         CLEAR     24  18  77 S6        30.07F WCI  17
$$

NOTE: "FAIR" INDICATES FEW OR NO CLOUDS BELOW 12,000 FEET WITH NO
SIGNIFICANT WEATHER AND/OR OBSTRUCTIONS TO VISIBILITY. WIND
SPEEDS ARE IN MILES-PER-HOUR.




USA.gov is the U.S. government's official web portal to all federal, state and local government web resources and services.